Time,TemperatureF,DewpointF,PressureIn,WindDirection,WindDirectionDegrees,WindSpeedMPH,WindSpeedGustMPH,Humidity,HourlyPrecipIn,Conditions,Clouds,dailyrainin,SolarRadiationWatts/m^2,SoftwareType,DateUTC
2013-07-09 00:00:00,58.0,45.0,-100.00,SW,226,5.0,14.0,61,0.00,,,0.00,0.000000,,2013-07-09 07:00:00,
2013-07-09 00:34:00,58.0,45.0,-100.00,SW,226,5.0,14.0,61,0.00,,,0.00,0.000000,,2013-07-09 07:34:00,
2013-07-09 00:43:00,58.0,45.0,-100.00,SW,226,5.0,14.0,61,0.00,,,0.00,0.000000,,2013-07-09 07:43:00,
2013-07-09 00:53:00,58.0,45.0,-100.00,SW,226,5.0,14.0,61,0.00,,,0.00,0.000000,,2013-07-09 07:53:00,
2013-07-09 01:00:00,57.0,48.0,-100.00,SW,223,7.0,10.0,72,0.00,,,0.00,0.000000,,2013-07-09 08:00:00,
2013-07-09 01:22:00,57.0,48.0,-100.00,SW,223,7.0,10.0,72,0.00,,,0.00,0.000000,,2013-07-09 08:22:00,
2013-07-09 01:33:00,57.0,48.0,-100.00,SW,223,7.0,10.0,72,0.00,,,0.00,0.000000,,2013-07-09 08:33:00,
2013-07-09 01:43:00,57.0,48.0,-100.00,SW,223,7.0,10.0,72,0.00,,,0.00,0.000000,,2013-07-09 08:43:00,
2013-07-09 01:52:00,57.0,48.0,-100.00,SW,223,7.0,10.0,72,0.00,,,0.00,0.000000,,2013-07-09 08:52:00,
2013-07-09 02:00:00,60.0,41.0,-100.00,West,276,4.0,8.0,50,0.00,,,0.00,0.000000,,2013-07-09 09:00:00,
2013-07-09 02:22:00,60.0,41.0,-100.00,West,276,4.0,8.0,50,0.00,,,0.00,0.000000,,2013-07-09 09:22:00,
2013-07-09 02:34:00,60.0,41.0,-100.00,West,276,4.0,8.0,50,0.00,,,0.00,0.000000,,2013-07-09 09:34:00,
2013-07-09 02:42:00,60.0,41.0,-100.00,West,276,4.0,8.0,50,0.00,,,0.00,0.000000,,2013-07-09 09:42:00,
2013-07-09 02:53:00,60.0,41.0,-100.00,West,276,4.0,8.0,50,0.00,,,0.00,0.000000,,2013-07-09 09:53:00,
2013-07-09 03:00:00,62.0,42.0,-100.00,WNW,302,1.0,5.0,47,0.00,,,0.00,0.000000,,2013-07-09 10:00:00,
2013-07-09 03:22:00,62.0,42.0,-100.00,WNW,302,1.0,5.0,47,0.00,,,0.00,0.000000,,2013-07-09 10:22:00,
2013-07-09 03:34:00,62.0,42.0,-100.00,WNW,302,1.0,5.0,47,0.00,,,0.00,0.000000,,2013-07-09 10:34:00,
2013-07-09 03:42:00,62.0,42.0,-100.00,WNW,302,1.0,5.0,47,0.00,,,0.00,0.000000,,2013-07-09 10:42:00,
2013-07-09 03:52:00,62.0,42.0,-100.00,WNW,302,1.0,5.0,47,0.00,,,0.00,0.000000,,2013-07-09 10:52:00,
2013-07-09 04:00:00,61.0,38.0,-100.00,NW,313,2.0,5.0,42,0.00,,,0.00,0.000000,,2013-07-09 11:00:00,
2013-07-09 04:22:00,61.0,38.0,-100.00,NW,313,2.0,5.0,42,0.00,,,0.00,0.000000,,2013-07-09 11:22:00,
2013-07-09 04:34:00,61.0,38.0,-100.00,NW,313,2.0,5.0,42,0.00,,,0.00,0.000000,,2013-07-09 11:34:00,
2013-07-09 04:42:00,61.0,38.0,-100.00,NW,313,2.0,5.0,42,0.00,,,0.00,0.000000,,2013-07-09 11:42:00,
2013-07-09 04:53:00,61.0,38.0,-100.00,NW,313,2.0,5.0,42,0.00,,,0.00,0.000000,,2013-07-09 11:53:00,
2013-07-09 06:00:00,65.0,43.0,-100.00,NNE,30,1.0,6.0,44,0.00,,,0.00,9.000000,,2013-07-09 13:00:00,
2013-07-09 07:53:00,69.0,46.0,-100.00,NE,51,4.0,6.0,44,-99.99,,,0.00,126.000000,,2013-07-09 14:53:00,
2013-07-09 08:00:00,70.0,47.0,-100.00,NE,51,1.0,6.0,44,-99.99,,,0.00,313.000000,,2013-07-09 15:00:00,
2013-07-09 10:00:00,74.0,45.0,-100.00,WSW,258,0.0,4.0,36,-99.99,,,0.00,709.000000,,2013-07-09 17:00:00,
2013-07-09 10:45:00,74.0,45.0,-100.00,WSW,258,0.0,4.0,36,-99.99,,,0.00,709.000000,,2013-07-09 17:45:00,
2013-07-09 10:53:00,74.0,45.0,-100.00,WSW,258,0.0,4.0,36,-99.99,,,0.00,709.000000,,2013-07-09 17:53:00,
2013-07-09 11:00:00,76.0,55.0,-100.00,SSE,167,0.0,4.0,49,-99.99,,,0.00,873.000000,,2013-07-09 18:00:00,
2013-07-09 11:32:00,76.0,55.0,-100.00,SSE,167,0.0,4.0,49,-99.99,,,0.00,873.000000,,2013-07-09 18:32:00,
2013-07-09 11:43:00,76.0,55.0,-100.00,SSE,167,0.0,4.0,49,-99.99,,,0.00,873.000000,,2013-07-09 18:43:00,
2013-07-09 11:52:00,76.0,55.0,-100.00,SSE,167,0.0,4.0,49,-99.99,,,0.00,873.000000,,2013-07-09 18:52:00,
2013-07-09 12:00:00,76.0,57.0,-100.00,SW,214,0.0,4.0,52,0.00,,,0.00,998.000000,,2013-07-09 19:00:00,
2013-07-09 12:33:00,76.0,57.0,-100.00,SW,214,0.0,4.0,52,0.00,,,0.00,998.000000,,2013-07-09 19:33:00,
2013-07-09 12:42:00,76.0,57.0,-100.00,SW,214,0.0,4.0,52,0.00,,,0.00,998.000000,,2013-07-09 19:42:00,
2013-07-09 12:52:00,76.0,57.0,-100.00,SW,214,0.0,4.0,52,0.00,,,0.00,998.000000,,2013-07-09 19:52:00,
2013-07-09 13:00:00,76.0,59.0,-100.00,West,259,1.0,5.0,55,0.00,,,0.00,1073.000000,,2013-07-09 20:00:00,
2013-07-09 13:32:00,76.0,59.0,-100.00,West,259,1.0,5.0,55,0.00,,,0.00,1073.000000,,2013-07-09 20:32:00,
2013-07-09 13:43:00,76.0,59.0,-100.00,West,259,1.0,5.0,55,0.00,,,0.00,1073.000000,,2013-07-09 20:43:00,
2013-07-09 13:52:00,76.0,59.0,-100.00,West,259,1.0,5.0,55,0.00,,,0.00,1073.000000,,2013-07-09 20:52:00,
2013-07-09 14:00:00,75.0,56.0,-100.00,West,275,2.0,7.0,51,0.00,,,0.00,1096.000000,,2013-07-09 21:00:00,
2013-07-09 14:32:00,75.0,56.0,-100.00,West,275,2.0,7.0,51,0.00,,,0.00,1096.000000,,2013-07-09 21:32:00,
2013-07-09 14:42:00,75.0,56.0,-100.00,West,275,2.0,7.0,51,0.00,,,0.00,1096.000000,,2013-07-09 21:42:00,
2013-07-09 14:52:00,75.0,56.0,-100.00,West,275,2.0,7.0,51,0.00,,,0.00,1096.000000,,2013-07-09 21:52:00,
2013-07-09 15:00:00,73.0,54.0,-100.00,WSW,242,5.0,10.0,52,0.00,,,0.00,1067.000000,,2013-07-09 22:00:00,
2013-07-09 15:33:00,73.0,54.0,-100.00,WSW,242,5.0,10.0,52,0.00,,,0.00,1067.000000,,2013-07-09 22:33:00,
2013-07-09 15:42:00,73.0,54.0,-100.00,WSW,242,5.0,10.0,52,0.00,,,0.00,1067.000000,,2013-07-09 22:42:00,
2013-07-09 15:53:00,73.0,54.0,-100.00,WSW,242,5.0,10.0,52,0.00,,,0.00,1067.000000,,2013-07-09 22:53:00,
2013-07-09 16:00:00,71.0,51.0,-100.00,SW,221,6.0,13.0,50,0.00,,,0.00,981.000000,,2013-07-09 23:00:00,
2013-07-09 16:33:00,71.0,51.0,-100.00,SW,221,6.0,13.0,50,0.00,,,0.00,981.000000,,2013-07-09 23:33:00,
2013-07-09 16:43:00,71.0,51.0,-100.00,SW,221,6.0,13.0,50,0.00,,,0.00,981.000000,,2013-07-09 23:43:00,
2013-07-09 16:53:00,71.0,51.0,-100.00,SW,221,6.0,13.0,50,0.00,,,0.00,981.000000,,2013-07-09 23:53:00,
2013-07-09 17:00:00,69.0,49.0,-100.00,SW,232,8.0,15.0,49,0.00,,,0.00,849.000000,,2013-07-10 00:00:00,
2013-07-09 17:33:00,69.0,49.0,-100.00,SW,232,8.0,15.0,49,0.00,,,0.00,849.000000,,2013-07-10 00:33:00,
2013-07-09 17:43:00,69.0,49.0,-100.00,SW,232,8.0,15.0,49,0.00,,,0.00,849.000000,,2013-07-10 00:43:00,
2013-07-09 17:52:00,69.0,49.0,-100.00,SW,232,8.0,15.0,49,0.00,,,0.00,849.000000,,2013-07-10 00:52:00,
2013-07-09 18:00:00,65.0,49.0,-100.00,SW,222,7.0,14.0,57,0.00,,,0.00,671.000000,,2013-07-10 01:00:00,
2013-07-09 18:33:00,65.0,49.0,-100.00,SW,222,7.0,14.0,57,0.00,,,0.00,671.000000,,2013-07-10 01:33:00,
2013-07-09 18:43:00,65.0,49.0,-100.00,SW,222,7.0,14.0,57,0.00,,,0.00,671.000000,,2013-07-10 01:43:00,
2013-07-09 18:53:00,65.0,49.0,-100.00,SW,222,7.0,14.0,57,0.00,,,0.00,671.000000,,2013-07-10 01:53:00,
2013-07-09 19:00:00,57.0,49.0,-100.00,SW,221,6.0,14.0,74,0.00,,,0.00,477.000000,,2013-07-10 02:00:00,
2013-07-09 19:34:00,57.0,49.0,-100.00,SW,221,6.0,14.0,74,0.00,,,0.00,477.000000,,2013-07-10 02:34:00,
2013-07-09 19:53:00,57.0,49.0,-100.00,SW,221,6.0,14.0,74,0.00,,,0.00,477.000000,,2013-07-10 02:53:00,
2013-07-09 20:00:00,53.0,49.0,-100.00,SW,230,7.0,12.0,87,0.00,,,0.00,44.000000,,2013-07-10 03:00:00,
2013-07-09 20:22:00,53.0,49.0,-100.00,SW,230,7.0,12.0,87,0.00,,,0.00,44.000000,,2013-07-10 03:22:00,
2013-07-09 20:32:00,53.0,49.0,-100.00,SW,230,7.0,12.0,87,0.00,,,0.00,44.000000,,2013-07-10 03:32:00,
2013-07-09 20:43:00,53.0,49.0,-100.00,SW,230,7.0,12.0,87,0.00,,,0.00,44.000000,,2013-07-10 03:43:00,
2013-07-09 20:52:00,53.0,49.0,-100.00,SW,230,7.0,12.0,87,0.00,,,0.00,44.000000,,2013-07-10 03:52:00,
2013-07-09 21:00:00,50.0,49.0,-100.00,SW,230,10.0,17.0,95,0.00,,,0.00,16.000000,,2013-07-10 04:00:00,
2013-07-09 21:33:00,50.0,49.0,-100.00,SW,230,10.0,17.0,95,0.00,,,0.00,16.000000,,2013-07-10 04:33:00,
2013-07-09 21:43:00,50.0,49.0,-100.00,SW,230,10.0,17.0,95,0.00,,,0.00,16.000000,,2013-07-10 04:43:00,
2013-07-09 21:52:00,50.0,49.0,-100.00,SW,230,10.0,17.0,95,0.00,,,0.00,16.000000,,2013-07-10 04:52:00,
2013-07-09 22:00:00,51.0,47.0,-100.00,SW,232,9.0,19.0,87,0.00,,,0.00,2.000000,,2013-07-10 05:00:00,
2013-07-09 22:32:00,51.0,47.0,-100.00,SW,232,9.0,19.0,87,0.00,,,0.00,2.000000,,2013-07-10 05:32:00,
2013-07-09 22:42:00,51.0,47.0,-100.00,SW,232,9.0,19.0,87,0.00,,,0.00,2.000000,,2013-07-10 05:42:00,
2013-07-09 22:53:00,51.0,47.0,-100.00,SW,232,9.0,19.0,87,0.00,,,0.00,2.000000,,2013-07-10 05:53:00,
2013-07-09 23:00:00,48.0,48.0,-100.00,SW,229,11.0,17.0,100,0.00,,,0.00,0.000000,,2013-07-10 06:00:00,
2013-07-09 23:22:00,48.0,48.0,-100.00,SW,229,11.0,17.0,100,0.00,,,0.00,0.000000,,2013-07-10 06:22:00,
2013-07-09 23:33:00,48.0,48.0,-100.00,SW,229,11.0,17.0,100,0.00,,,0.00,0.000000,,2013-07-10 06:33:00,
2013-07-09 23:42:00,48.0,48.0,-100.00,SW,229,11.0,17.0,100,0.00,,,0.00,0.000000,,2013-07-10 06:42:00,
2013-07-09 23:52:00,48.0,48.0,-100.00,SW,229,11.0,17.0,100,0.00,,,0.00,0.000000,,2013-07-10 06:52:00,